Wind_Speed
20 19 19 19 19 20 20 19 19 18 18 17 17 16 15 14 14 14 14 13 13 13 13 13 13 13 14 14 14 13 13 14 14 16 17 16 17 18 19 20 21 22 23 25 26 27 29 30 32 32 32 31 31 30 30 30 30 30 31 31 32 32 32 32 32 32 32 32 32 32 32 33 34 35 35 33 31 29 27 26 25 24 23 23 22
21 20 20 20 20 21 20 20 20 19 19 19 18 17 17 16 15 15 15 14 14 14 14 14 14 14 15 16 16 16 15 16 16 17 18 18 18 19 20 21 23 24 25 27 29 30 32 33 33 32 31 30 29 29 29 29 29 30 30 31 31 31 31 32 32 33 33 33 33 33 33 34 34 35 35 35 33 31 29 27 27 26 24 24 24
23 22 21 21 21 22 21 21 20 19 19 19 19 19 18 18 17 17 16 16 16 16 16 16 16 16 17 18 18 18 18 18 17 18 19 19 19 20 22 23 25 27 29 30 31 32 32 32 31 30 29 29 28 28 28 28 28 28 29 29 30 30 31 31 32 33 34 34 35 35 35 35 35 35 35 36 35 33 31 29 27 26 25 25 25
24 23 23 23 24 23 22 22 21 21 20 19 19 20 20 19 19 18 18 18 18 18 18 18 18 18 19 19 20 20 19 19 18 18 19 20 20 21 23 25 27 29 31 32 32 32 31 30 30 29 28 28 28 28 27 27 27 28 28 28 29 30 31 31 32 32 33 34 35 36 37 37 37 36 36 36 37 35 33 31 28 27 26 25 25
24 24 24 25 25 25 24 23 22 22 20 19 20 20 21 21 20 20 19 19 19 20 20 20 20 20 20 20 20 20 19 19 19 19 20 21 22 23 24 27 30 32 32 32 31 30 30 29 29 29 29 28 28 28 28 28 28 29 29 29 30 31 31 32 33 33 33 34 35 37 38 39 39 38 37 37 37 37 35 33 30 28 27 26 25
24 24 25 25 26 25 23 21 21 22 21 19 19 20 21 22 21 21 21 21 21 21 21 21 21 21 20 20 19 19 19 19 19 20 21 23 25 27 29 30 31 31 31 30 30 30 29 29 29 29 29 29 29 29 29 29 29 30 30 31 31 32 33 34 35 35 35 35 36 38 40 40 40 40 39 39 39 38 37 35 32 29 28 27 26
23 24 24 24 25 23 21 20 20 21 21 20 20 21 22 22 22 22 22 23 23 22 22 21 21 20 19 19 18 18 19 19 20 22 23 25 28 30 31 31 31 30 29 28 29 29 29 29 30 30 30 30 30 30 30 31 31 32 32 33 34 34 35 36 36 37 37 37 37 38 40 42 42 41 41 41 40 40 39 37 34 30 29 29 27
22 24 25 23 23 22 22 22 21 21 22 21 21 22 23 23 22 22 23 23 23 22 21 20 19 18 18 17 17 17 18 20 22 23 25 27 29 30 31 31 30 30 29 28 27 28 29 29 30 30 30 30 30 31 32 33 33 34 35 36 36 37 37 38 38 38 38 38 38 38 40 42 43 42 42 42 42 41 40 40 37 33 30 30 29
22 24 25 24 23 23 24 24 21 21 22 22 22 23 24 24 24 23 23 22 22 21 20 19 18 17 17 17 17 17 18 21 23 25 27 28 29 29 30 30 30 29 29 29 28 28 29 29 30 30 31 31 32 33 34 35 36 37 37 38 39 39 40 40 40 40 39 39 39 39 40 42 43 43 43 43 43 42 41 41 40 36 33 31 30
23 25 25 25 24 24 24 22 19 20 21 22 24 25 24 25 24 24 22 22 22 21 20 19 18 17 16 16 17 18 20 22 24 26 28 29 29 29 29 29 29 29 29 29 29 29 29 30 30 31 32 33 34 35 36 37 38 39 40 40 41 41 41 41 40 41 41 40 40 40 40 41 43 44 44 44 43 43 42 41 41 39 36 32 31
25 25 25 26 26 23 22 21 19 20 22 24 25 25 25 25 25 24 22 21 21 21 21 18 16 16 16 17 18 19 21 23 25 27 28 29 29 28 28 28 28 28 29 29 29 30 31 32 32 33 34 35 36 38 39 40 40 41 42 42 42 41 41 41 41 41 41 41 41 40 40 41 42 43 44 44 44 43 42 42 41 40 38 35 32
25 26 26 26 26 24 21 20 19 22 25 25 25 25 26 25 25 24 22 21 20 20 18 16 15 16 16 17 19 20 23 25 27 28 29 29 29 28 28 28 28 28 29 29 30 31 33 34 35 37 38 39 39 40 41 41 42 42 42 42 42 41 41 41 41 41 41 41 41 41 40 41 41 43 44 44 44 43 42 42 41 40 39 36 33
25 26 26 25 26 25 24 23 24 27 28 27 27 26 26 26 26 25 22 20 19 17 14 13 14 15 17 19 21 22 24 27 28 28 29 29 28 28 28 28 28 28 29 30 32 34 35 37 38 39 40 41 42 42 42 42 43 42 42 42 42 42 41 41 40 40 40 40 40 40 40 41 41 42 43 44 44 43 42 42 42 41 39 37 34
25 27 26 24 25 26 27 28 30 29 28 27 27 26 26 27 26 23 21 19 16 13 12 13 15 16 18 20 22 24 25 27 28 28 28 28 28 28 28 29 29 30 31 33 35 36 38 39 40 41 41 42 43 43 43 43 43 43 43 43 42 42 42 41 41 41 40 40 40 41 41 41 41 42 43 44 44 43 43 42 43 41 40 38 35
26 27 26 25 26 27 28 30 29 27 27 27 26 25 26 26 23 21 19 16 12 11 12 14 16 18 20 22 23 24 24 26 28 28 27 28 28 29 29 30 31 33 34 36 37 38 40 41 41 42 42 42 43 43 43 43 43 43 43 43 43 43 43 43 43 43 42 42 42 42 42 42 42 42 43 44 44 44 43 43 43 42 41 39 37
25 26 27 27 27 28 28 27 26 26 25 25 24 23 24 23 22 21 17 12 10 11 13 15 17 20 22 24 25 25 25 25 26 28 28 28 29 30 31 32 34 35 37 38 40 40 41 42 42 42 42 42 42 42 43 43 43 43 43 44 44 44 45 45 45 45 45 44 44 44 44 44 43 43 43 44 44 44 44 44 44 43 42 40 38
25 26 27 27 27 27 26 24 24 25 25 23 22 22 22 23 21 17 12 9 9 12 14 16 19 21 23 25 27 27 26 25 25 27 28 29 30 31 33 34 36 37 39 40 41 41 41 41 41 41 41 42 42 43 43 44 44 45 45 46 46 46 47 47 47 47 46 46 46 46 45 45 45 45 44 44 44 45 45 45 45 44 43 41 39
25 26 26 26 26 26 24 23 23 24 24 22 20 22 23 20 15 10 8 8 11 13 15 17 19 22 24 26 27 28 28 27 27 28 29 30 31 32 34 35 37 38 39 40 40 40 40 40 40 40 41 41 42 43 44 45 45 46 46 47 47 48 48 48 49 49 49 48 48 48 47 47 46 46 46 45 45 45 45 46 46 46 45 43 41
27 26 24 24 25 25 24 23 24 24 22 20 20 23 21 15 9 7 7 9 11 14 16 18 20 23 25 26 27 28 29 30 30 31 30 31 32 34 35 37 38 39 39 39 39 39 39 40 40 41 42 43 44 45 46 46 47 47 48 49 50 50 51 51 52 52 52 52 51 51 50 50 49 48 48 47 46 46 46 47 47 47 46 45 43
27 26 25 25 26 26 26 25 24 22 20 20 22 21 16 10 7 7 8 10 12 15 17 19 22 23 25 26 27 28 30 31 32 33 33 33 34 35 37 38 39 39 39 39 39 39 39 40 41 42 43 44 45 46 46 47 49 50 51 52 54 54 55 55 55 55 54 54 54 54 53 53 52 51 51 50 49 48 47 47 47 48 48 47 45
28 28 27 27 28 28 28 25 22 21 22 24 22 15 10 7 7 8 10 12 14 16 18 20 22 24 25 26 27 28 29 30 31 33 34 35 35 36 36 36 37 37 37 38 38 38 39 40 41 42 43 44 45 46 48 50 51 53 55 56 58 59 59 59 59 58 57 56 55 55 55 54 54 53 53 53 52 51 49 48 48 48 48 48 47
28 28 27 27 27 26 23 20 19 21 22 22 17 10 7 7 8 10 11 13 15 17 19 21 23 24 25 26 27 28 29 30 31 33 34 35 36 36 36 36 36 37 38 38 39 39 40 41 42 43 44 45 47 49 51 53 55 56 58 60 61 62 62 62 61 59 58 56 55 54 54 54 54 53 54 54 54 54 52 50 49 49 49 49 49
28 26 25 24 22 19 18 18 20 18 16 14 10 7 7 7 9 11 12 14 16 18 20 22 23 24 25 26 27 28 29 30 32 32 33 33 34 35 36 37 37 37 37 38 38 39 41 42 43 44 46 48 51 53 54 56 57 59 61 62 63 62 61 60 58 56 55 54 53 52 51 51 51 51 51 52 54 55 54 53 51 51 50 50 49
24 22 21 20 17 17 18 19 17 13 10 8 7 6 7 8 10 11 13 15 17 19 21 22 23 24 25 26 27 29 29 30 30 31 31 32 34 35 36 37 37 37 36 37 38 39 40 42 44 46 49 51 53 55 57 58 60 61 62 62 61 60 58 56 54 53 52 52 51 50 50 49 49 49 49 49 50 52 54 54 53 52 52 51 50
22 20 19 17 16 18 20 18 14 11 8 6 5 6 7 9 11 13 15 17 18 20 21 22 23 24 25 27 28 28 28 28 29 30 31 33 34 35 36 36 37 36 36 37 38 40 40 42 45 48 51 53 55 57 59 60 61 61 61 59 58 56 55 53 52 51 50 50 50 50 49 49 48 48 47 47 47 48 50 52 53 54 54 53 52
23 22 19 17 18 20 19 16 12 9 7 6 7 8 9 11 13 14 16 17 19 20 21 22 23 25 26 27 28 27 27 28 30 31 32 34 34 35 35 35 34 35 36 37 39 40 42 44 47 51 53 55 57 58 60 61 60 59 58 57 56 55 54 52 50 48 48 48 48 48 48 47 47 47 46 45 45 45 46 48 51 53 55 55 54
24 23 20 19 19 18 16 12 9 8 8 8 9 10 11 13 14 15 17 18 19 20 21 23 24 25 27 27 27 27 28 29 31 32 33 34 34 34 33 33 34 35 37 39 39 41 43 46 50 53 55 56 58 59 59 58 57 56 55 55 54 54 53 51 49 48 47 45 42 40 39 40 40 42 43 43 42 42 43 45 47 49 53 55 55
23 22 21 20 18 14 12 10 9 9 10 10 10 11 12 14 15 16 17 18 20 21 22 23 25 26 27 26 27 28 29 31 32 33 34 34 33 33 32 33 35 36 38 40 41 42 44 47 51 54 55 56 57 57 56 54 53 53 53 54 54 54 53 51 50 50 46 39 33 32 33 35 36 36 37 38 39 39 39 41 43 45 48 52 55
22 21 19 16 13 11 10 10 10 10 10 10 11 12 13 14 16 17 18 19 21 22 23 24 25 27 27 27 28 29 31 32 32 33 33 32 32 31 32 34 35 37 39 40 42 43 45 48 51 53 55 55 55 54 52 51 51 52 52 53 53 54 54 54 54 50 41 33 30 31 33 35 36 35 34 34 35 36 37 37 39 41 44 48 52
18 16 14 12 10 9 9 9 10 10 11 11 12 13 14 16 17 18 19 21 22 23 24 25 26 27 27 28 29 30 31 31 32 32 32 31 31 31 32 34 36 38 39 41 42 44 46 49 51 53 54 53 52 50 50 50 50 51 51 52 54 55 55 55 54 48 39 33 33 36 37 39 38 34 32 31 32 33 34 35 35 37 41 45 48
13 13 12 11 10 9 10 11 11 11 12 13 14 15 16 17 19 20 21 22 23 24 24 25 27 28 28 29 30 30 31 31 31 31 31 31 30 31 33 35 37 38 39 41 42 44 46 49 51 52 52 51 49 48 48 48 48 49 50 51 53 55 56 55 53 48 41 37 38 41 42 41 38 34 30 28 28 30 31 32 33 34 37 41 45
13 12 11 10 10 11 12 12 12 13 14 15 15 16 17 19 20 21 22 23 24 24 24 26 27 29 29 30 30 30 30 31 31 32 31 31 30 32 33 35 37 39 40 41 43 44 46 49 51 51 50 48 46 46 45 45 46 46 47 49 50 52 54 54 51 46 42 40 41 43 42 40 38 35 31 28 26 26 28 31 32 32 34 37 42
12 11 10 10 11 12 13 13 14 15 16 16 17 18 19 20 21 22 24 25 25 25 25 26 28 29 30 30 30 30 31 32 32 32 31 31 31 32 34 36 38 39 40 41 42 44 46 48 50 49 48 46 44 43 43 42 42 43 45 46 48 49 51 52 50 46 41 40 40 40 39 38 38 36 33 30 27 25 25 27 30 31 32 34 39
11 11 11 11 12 13 14 15 16 16 17 18 18 19 20 21 22 24 25 25 26 26 26 27 29 30 31 31 31 31 32 32 32 32 31 31 31 32 34 36 37 39 40 41 42 44 46 47 48 47 45 44 42 42 41 40 40 41 42 44 45 46 47 48 49 47 44 40 38 37 37 36 35 35 33 31 29 26 23 23 25 29 31 32 35
12 12 12 12 14 15 16 16 17 17 18 19 20 20 21 23 24 25 26 26 27 26 27 28 30 31 31 31 31 32 33 33 33 32 32 31 31 32 34 36 37 39 40 40 41 43 45 46 46 45 43 41 41 40 40 39 39 40 41 42 43 44 45 45 46 47 46 43 39 37 35 34 33 32 31 30 29 27 25 22 21 23 28 31 32
13 13 13 14 15 16 17 17 17 18 19 20 21 22 23 24 25 26 27 27 27 27 28 29 30 32 32 32 32 33 33 33 33 33 31 30 30 32 34 35 37 38 39 40 41 42 44 45 44 42 40 39 39 39 38 38 38 40 41 41 42 42 43 44 45 45 46 46 44 40 37 33 31 31 30 29 29 28 27 25 22 20 22 26 30
14 14 15 16 17 17 17 17 17 19 20 21 23 24 25 26 27 27 27 28 28 28 28 30 31 32 32 32 33 33 33 33 33 32 30 30 30 32 33 35 37 38 38 39 40 42 43 43 41 39 38 37 37 37 37 38 38 39 40 41 42 42 42 44 45 46 47 47 46 45 41 36 32 31 31 30 30 30 30 28 27 25 22 22 25
15 15 16 17 18 18 18 18 19 20 21 23 24 25 26 27 28 28 29 29 29 29 29 30 31 32 32 33 33 33 33 33 32 31 30 29 30 32 33 35 37 38 38 38 40 41 41 41 40 38 36 35 35 35 36 37 38 39 39 40 42 42 42 44 45 46 48 48 47 46 44 40 36 34 32 30 29 29 29 30 29 28 27 25 24
16 17 18 19 19 19 19 20 20 21 23 24 25 26 27 28 29 29 30 30 30 30 30 31 31 32 32 32 33 33 33 33 32 30 29 29 30 32 33 35 37 37 37 37 38 39 39 39 38 37 35 34 34 34 35 36 38 39 39 40 41 42 43 44 45 46 48 48 47 46 44 42 38 35 32 28 26 25 26 28 29 29 29 29 28
17 18 19 19 20 20 21 22 22 23 24 25 26 27 28 29 30 30 30 30 31 31 31 31 31 32 32 32 33 33 33 32 32 30 29 29 30 32 33 35 36 36 36 37 37 37 37 37 36 35 35 34 34 34 34 35 37 39 40 41 42 42 44 45 45 45 46 48 47 45 44 42 39 35 31 26 24 25 27 29 30 31 30 30 30
17 18 19 20 21 22 23 24 24 25 26 27 29 30 30 31 32 32 32 32 32 33 32 31 31 32 32 32 32 33 33 32 31 30 30 30 30 32 33 35 36 36 36 36 36 36 36 35 34 34 34 34 34 34 34 35 36 38 39 41 42 43 44 45 45 45 46 47 47 46 43 41 39 35 31 28 27 29 31 32 32 31 31 31 30
18 19 20 21 23 24 24 25 26 26 28 29 31 31 32 33 34 34 34 34 34 34 33 32 31 32 32 32 32 33 33 32 32 30 29 30 31 31 32 34 35 35 35 35 35 35 34 33 33 33 34 34 34 35 35 35 36 37 39 40 42 44 45 45 45 45 46 45 46 47 44 39 36 34 32 31 31 32 34 35 35 33 31 31 30
20 21 22 23 23 24 25 25 26 28 29 31 32 33 34 35 36 36 36 35 34 33 32 32 31 31 31 31 32 32 33 32 31 30 29 30 31 31 32 33 34 35 35 34 34 33 33 33 33 33 34 34 35 35 35 35 35 36 38 40 42 44 45 45 45 46 46 45 45 47 46 41 37 34 32 31 31 33 34 35 35 34 33 32 33
21 22 23 23 24 24 25 26 27 29 31 32 34 35 36 37 38 39 38 35 33 31 31 31 30 30 30 31 31 32 32 31 30 29 29 30 31 31 31 32 33 34 34 33 33 33 32 33 33 33 34 34 35 36 36 36 36 36 38 39 41 44 45 46 47 47 47 46 46 47 48 47 43 38 34 32 31 31 33 35 35 35 36 38 39
22 23 23 24 24 25 26 27 29 32 34 35 37 38 38 38 36 34 32 30 29 29 30 29 29 29 30 30 31 31 31 30 29 28 29 30 30 31 31 32 33 33 33 33 33 33 32 33 33 34 34 35 35 36 36 37 37 37 38 38 40 42 44 46 47 48 48 48 47 47 47 48 47 43 39 36 35 34 35 36 37 38 41 45 45
23 23 24 24 24 25 26 28 30 32 33 33 34 33 32 29 25 22 21 23 25 27 28 28 28 28 29 29 30 30 30 29 28 27 28 29 30 30 31 32 32 32 32 32 32 32 32 32 33 33 34 35 36 36 37 38 39 39 39 38 39 41 43 46 47 48 49 49 48 48 47 48 49 48 45 41 39 39 39 40 41 41 43 48 46
24 24 25 25 25 25 27 27 28 29 29 29 28 27 24 21 18 18 20 22 24 26 26 26 27 28 28 28 29 29 29 28 27 27 28 29 30 30 31 31 32 32 32 32 33 33 32 31 32 33 34 35 36 37 38 39 40 40 40 39 40 40 42 44 46 47 49 49 49 49 48 48 49 50 50 47 44 44 43 44 45 44 45 49 47
25 25 25 25 26 26 26 27 27 27 27 27 26 24 22 19 19 19 20 22 24 24 25 26 27 27 27 28 28 29 28 28 27 28 28 29 30 31 31 31 32 32 33 33 34 33 32 31 32 33 34 35 36 38 39 39 39 39 39 39 40 40 40 42 44 46 48 49 50 50 49 49 50 51 53 52 51 49 47 46 47 47 46 49 48
25 26 26 26 27 27 27 27 28 28 27 26 25 22 20 20 20 21 21 22 23 23 24 26 27 27 27 27 28 28 28 28 28 28 29 30 31 32 32 31 31 32 32 33 33 32 31 31 32 32 34 35 36 37 38 38 38 38 38 39 39 39 39 40 43 45 47 48 49 50 51 50 51 51 53 54 54 54 51 48 48 49 47 47 48
26 26 27 27 27 27 28 28 28 27 26 25 23 21 21 22 22 22 21 22 23 24 25 26 26 26 27 27 28 28 28 29 29 30 31 31 32 32 32 31 31 32 33 33 33 32 31 31 31 32 33 35 36 36 37 37 38 38 38 39 39 39 39 41 42 43 45 47 48 50 51 51 51 52 52 54 54 55 55 52 50 50 48 47 47
27 27 27 27 28 28 28 27 27 27 26 23 22 22 23 24 24 23 23 23 24 25 25 26 26 26 27 27 28 28 29 29 30 31 32 32 32 32 32 31 31 31 32 32 32 31 30 30 31 31 32 33 35 36 37 37 38 38 38 38 39 39 40 41 42 42 44 46 47 49 50 51 52 52 53 54 54 55 57 56 53 52 50 49 48
Wind_Direction
258 257 255 254 256 257 258 259 260 261 262 262 264 269 275 279 281 281 284 286 286 287 288 290 292 293 292 291 289 290 291 290 292 293 295 301 304 304 305 305 304 303 304 305 305 306 306 306 306 306 307 307 307 308 309 309 310 310 310 309 308 307 307 306 306 305 304 303 303 302 300 298 298 299 300 302 302 301 299 298 299 299 297 294 290
262 262 260 259 259 260 262 262 263 263 263 262 263 266 270 274 276 278 281 282 282 282 284 286 288 290 292 293 292 290 291 291 293 295 296 301 304 304 304 304 304 303 303 304 304 305 305 305 305 307 307 308 308 308 309 309 310 309 309 308 307 307 307 306 306 305 304 303 302 301 299 298 296 296 297 298 299 299 298 296 296 296 296 293 290
266 266 264 263 264 264 264 264 265 265 264 263 263 263 265 269 272 275 278 279 280 280 282 284 285 289 292 294 294 293 293 294 295 297 298 301 305 306 305 303 302 302 302 303 304 304 305 306 306 307 308 308 308 308 308 308 309 308 307 307 306 306 306 306 305 304 303 302 301 300 298 296 295 294 294 295 296 297 297 296 294 294 293 292 290
268 268 268 269 270 269 267 269 270 268 266 266 264 263 263 265 268 272 275 277 279 280 281 283 286 290 293 293 293 293 294 295 296 298 299 301 304 306 305 304 303 302 302 303 304 305 305 306 307 307 307 307 307 306 307 307 307 307 306 306 306 306 306 305 304 303 302 300 299 298 296 294 293 292 292 292 293 294 295 295 293 291 290 290 289
270 272 273 275 276 275 274 276 275 270 267 267 265 262 262 264 266 270 274 276 278 281 283 284 287 291 293 292 291 290 291 292 294 296 299 300 301 301 302 302 302 302 302 303 304 306 307 307 307 306 306 305 305 305 306 306 306 306 306 306 306 307 306 305 304 303 301 299 297 295 293 292 291 291 290 290 290 291 293 293 293 291 288 286 286
273 276 277 279 280 277 277 279 276 271 269 266 264 262 261 263 265 270 274 278 279 282 285 287 287 288 289 288 287 287 289 291 294 296 298 300 300 301 300 300 300 301 303 305 306 307 307 307 306 305 304 303 304 305 306 306 307 307 307 307 307 307 307 306 304 302 301 298 295 292 291 290 289 289 288 288 288 289 290 291 292 291 288 284 283
276 278 278 278 278 274 273 277 274 270 270 267 265 265 264 264 266 270 273 276 279 282 286 287 285 284 284 283 283 285 289 292 295 297 299 301 302 302 302 302 302 303 304 305 306 306 306 305 304 302 302 302 304 305 307 308 308 308 308 308 307 306 306 305 303 301 299 296 293 290 289 288 287 287 286 286 286 286 287 288 290 289 287 284 281
278 278 277 274 271 268 270 275 271 265 269 272 270 269 268 269 269 270 272 274 277 280 284 284 280 279 279 279 281 286 291 294 296 298 301 302 303 303 304 304 305 306 306 305 305 304 304 303 301 301 302 303 305 307 308 308 309 308 307 307 307 306 305 304 302 300 297 294 292 289 287 286 286 285 284 284 284 284 285 285 286 286 285 283 279
276 274 273 270 266 267 270 273 268 261 265 269 271 272 272 272 273 272 272 273 275 277 279 279 278 277 277 279 283 288 292 295 298 300 301 302 302 303 304 304 305 306 307 306 305 304 302 301 301 302 304 305 306 307 308 308 308 307 307 306 306 305 304 302 301 299 296 293 292 289 287 285 285 284 283 283 283 283 283 283 283 283 282 280 277
271 271 272 271 270 271 272 269 262 258 264 271 275 276 276 275 275 275 273 272 272 275 276 277 278 279 281 283 286 289 294 297 300 301 301 301 302 303 304 305 306 306 306 306 305 304 302 302 303 304 305 306 307 307 307 307 307 307 307 306 305 303 302 301 300 298 296 294 292 289 287 285 284 283 283 282 282 282 282 282 282 281 280 277 275
268 269 270 272 273 275 272 263 257 259 269 278 280 279 278 277 276 275 274 272 272 273 273 275 277 280 284 287 290 294 298 299 300 300 301 301 302 304 305 306 307 307 307 306 305 305 305 305 305 306 306 307 308 308 308 308 307 307 306 305 303 303 302 301 300 299 297 295 292 290 287 285 283 283 282 282 282 282 282 282 281 280 279 276 272
269 269 269 270 272 274 269 261 261 269 277 280 279 279 278 278 276 275 274 273 273 272 272 274 277 282 285 288 291 296 299 299 299 301 302 303 305 306 307 307 307 307 306 306 305 305 306 306 307 308 308 308 309 309 308 307 307 305 304 304 304 303 303 302 301 299 297 295 293 291 288 285 283 282 282 282 282 282 282 281 280 279 278 276 271
270 270 270 268 269 269 264 263 271 278 281 279 278 278 278 277 276 273 271 270 269 268 270 274 277 281 286 290 292 295 298 299 300 302 304 306 307 307 307 306 305 305 305 305 306 306 307 307 308 308 309 309 309 309 308 307 306 306 306 306 305 305 304 303 301 300 298 296 295 292 290 287 284 282 281 281 281 282 282 281 279 278 277 275 271
271 272 271 268 267 265 264 268 274 278 278 278 278 277 276 277 276 273 269 264 261 263 268 272 276 281 287 291 294 297 301 302 302 303 305 306 306 306 305 305 305 305 305 306 306 307 307 308 308 309 310 310 310 309 309 308 308 308 308 307 306 306 305 304 303 301 300 298 296 294 292 289 287 284 282 281 280 280 281 281 279 278 277 275 272
271 272 272 270 267 267 268 271 274 276 277 277 277 275 276 279 279 273 265 258 256 263 269 275 281 285 289 292 295 298 302 304 304 305 306 306 306 306 306 305 306 306 306 306 307 307 309 310 311 311 311 311 310 310 310 309 309 309 308 308 307 307 306 305 304 302 300 299 297 295 293 290 288 285 283 281 280 279 280 280 279 277 276 274 271
268 270 271 270 269 268 269 269 271 275 278 277 275 276 279 281 276 265 257 253 259 268 276 284 289 293 297 299 300 301 303 304 305 307 307 308 308 307 306 307 307 308 308 308 309 310 311 312 311 311 311 311 311 311 311 310 310 310 309 309 308 308 307 305 304 302 300 298 297 295 293 291 288 286 283 281 280 279 278 278 277 276 275 274 271
267 269 270 270 268 267 266 265 270 276 277 275 274 276 277 274 267 258 251 256 268 278 286 292 296 301 305 306 306 306 307 307 308 309 309 309 308 307 307 308 308 308 309 310 311 311 311 311 310 311 311 312 312 312 312 312 311 311 310 310 309 308 306 305 303 301 299 297 295 293 291 289 287 285 283 281 279 277 276 275 275 275 273 272 270
269 270 271 271 269 265 261 262 272 276 274 272 273 271 266 262 257 254 260 272 281 288 294 298 304 307 308 308 308 308 310 311 311 311 309 308 307 307 308 308 308 309 310 310 310 310 310 310 311 312 312 313 313 313 313 313 312 311 310 309 308 307 305 304 302 300 298 295 293 290 288 286 284 283 281 280 278 276 274 273 272 272 271 270 268
270 270 271 272 270 262 257 264 273 273 272 272 268 262 257 252 252 261 273 281 289 295 301 306 308 308 307 308 309 311 314 314 312 311 310 309 309 309 309 309 310 310 310 310 310 311 312 313 314 314 315 316 315 315 314 313 312 311 310 309 308 306 305 303 301 299 297 294 292 289 286 284 282 280 279 278 276 275 273 272 270 269 269 268 266
270 270 270 273 272 265 262 268 271 270 271 265 256 252 250 249 256 266 278 287 295 301 306 308 307 308 309 311 313 315 314 313 311 311 312 312 312 311 311 311 311 311 311 312 313 314 314 315 316 316 316 316 315 315 314 314 313 312 311 310 308 307 305 303 301 299 297 294 291 289 286 283 280 278 276 275 273 272 271 270 269 268 267 266 264
269 270 271 271 270 266 265 267 269 270 267 254 243 239 239 245 260 273 286 293 300 305 307 308 309 310 312 314 314 313 312 311 312 313 313 312 311 310 310 310 310 312 313 314 314 315 316 316 316 316 316 316 316 316 316 315 314 313 312 311 309 307 305 304 302 300 297 294 291 288 285 282 279 277 274 272 270 268 267 266 266 266 265 264 262
269 268 269 268 267 266 266 266 266 266 261 249 238 231 236 253 271 282 291 298 304 308 309 310 311 312 314 314 313 311 312 313 313 312 311 310 310 310 311 312 313 315 316 317 317 318 318 318 318 319 319 320 319 318 317 316 315 314 313 311 310 309 307 306 304 302 300 297 294 291 287 284 280 276 273 270 268 266 264 261 261 262 262 262 260
267 264 266 266 265 264 261 258 256 253 249 243 238 240 254 269 280 289 297 304 308 310 310 310 311 312 313 312 311 312 313 312 311 309 308 308 310 312 314 315 317 318 318 319 319 319 320 321 322 322 322 322 321 320 319 318 316 315 314 313 312 310 309 309 307 306 304 301 298 295 291 287 283 279 275 270 267 264 262 259 257 257 258 258 258
258 258 265 266 262 254 248 247 247 243 240 240 243 254 268 280 289 299 305 308 309 308 308 309 310 311 311 310 311 311 310 309 308 308 309 311 314 316 317 318 319 319 320 320 320 321 322 323 324 324 324 323 322 321 320 320 318 317 316 315 314 313 313 312 311 310 307 305 302 299 296 291 287 283 278 273 269 265 262 258 255 253 252 254 254
251 259 265 261 254 246 242 243 244 244 245 249 259 269 278 290 298 304 307 307 306 305 306 308 310 310 310 310 310 309 309 309 310 312 314 316 318 319 319 320 320 320 321 322 322 323 324 325 325 326 326 325 324 324 323 322 321 319 318 317 317 317 316 315 314 313 311 308 306 302 299 295 291 286 281 276 271 267 263 260 256 252 249 249 250
255 261 262 256 249 242 239 242 243 247 255 262 269 276 285 295 300 302 303 302 301 303 306 308 309 309 309 310 310 310 311 313 315 318 319 320 320 320 319 319 320 320 323 324 325 325 326 326 327 327 327 327 327 326 325 324 323 322 321 321 320 320 319 318 318 316 313 310 307 304 300 297 292 287 284 279 274 269 265 262 258 253 249 246 246
257 257 259 253 244 237 237 240 243 251 259 265 273 280 287 292 296 297 296 297 300 303 306 307 307 308 310 312 313 315 316 318 321 322 322 321 320 319 319 319 321 323 325 326 326 326 327 328 328 328 329 329 329 328 327 326 325 325 324 323 323 322 323 323 323 321 318 315 312 311 311 309 303 294 286 281 277 272 266 262 259 256 251 247 244
254 251 249 244 238 237 242 246 249 256 261 268 275 279 285 289 291 291 292 296 300 303 304 305 308 312 314 316 317 319 321 323 323 323 321 319 318 319 320 322 324 326 326 326 326 327 327 329 329 330 331 331 331 330 329 328 328 327 326 326 326 327 328 329 328 327 323 319 317 320 322 323 320 313 301 289 280 274 269 264 259 257 254 249 245
247 243 239 238 243 249 251 251 254 258 264 270 273 278 283 285 286 288 292 297 300 302 303 307 312 316 318 319 321 323 324 324 323 321 319 319 320 322 323 325 327 327 327 327 327 328 329 330 331 332 333 333 332 331 330 330 330 330 330 331 331 332 332 332 332 331 325 319 319 322 324 324 322 320 316 306 292 280 273 267 261 257 254 252 248
243 243 245 251 255 254 251 251 253 258 264 269 273 278 280 281 284 288 293 297 299 301 305 310 317 320 321 322 323 323 323 322 321 320 320 322 323 324 324 326 327 327 328 328 328 329 330 331 333 335 335 335 334 333 332 333 334 334 334 335 335 335 335 334 335 333 327 321 321 323 324 323 321 318 316 313 306 295 281 272 265 259 254 252 250
254 259 260 260 253 249 248 249 253 259 265 271 274 276 277 281 285 289 293 297 298 301 306 314 320 322 322 322 322 322 321 321 321 323 324 324 324 324 325 327 327 328 329 328 328 329 331 333 335 336 336 335 335 335 335 337 337 337 338 338 338 337 336 336 337 335 331 326 324 324 324 323 322 321 316 311 307 303 294 282 271 262 256 252 250
264 262 258 251 245 245 247 251 258 263 268 271 273 275 278 282 286 289 293 296 298 302 308 315 321 323 322 321 320 320 320 322 325 326 326 324 323 323 325 327 328 329 329 328 329 331 332 335 336 337 337 337 336 337 338 339 339 339 341 342 341 339 338 338 338 335 333 330 327 326 326 326 326 324 319 312 304 300 297 292 282 269 259 253 250
259 253 248 244 244 248 252 258 262 266 270 272 273 275 279 283 287 291 294 297 299 302 309 316 321 322 321 319 319 320 322 325 327 327 325 323 322 323 326 328 329 329 329 329 331 334 336 337 338 338 338 338 338 339 340 341 341 342 343 344 344 344 342 341 339 337 335 333 330 329 329 329 328 325 322 317 310 301 294 292 290 282 269 258 251
251 249 247 247 251 254 258 262 266 269 272 273 275 278 282 286 289 292 295 297 299 303 310 315 319 320 319 319 320 322 325 326 327 326 324 321 321 323 326 328 329 329 329 330 333 337 339 340 340 340 339 339 339 340 342 342 342 343 345 346 347 348 347 345 343 340 338 336 334 333 333 332 330 327 324 322 319 313 303 292 287 286 281 270 258
253 253 252 254 256 259 263 266 270 273 276 277 279 281 285 288 291 294 296 298 301 305 310 313 316 318 318 319 321 324 325 325 325 324 321 320 321 324 326 327 328 328 329 332 336 339 341 341 341 341 340 339 340 341 343 343 344 345 346 347 349 350 349 350 349 345 340 338 337 337 337 336 334 330 326 324 323 320 316 306 293 284 283 280 271
254 255 256 257 259 263 268 272 277 280 281 282 282 284 286 288 291 294 296 299 303 307 310 312 314 316 317 320 322 324 324 323 323 322 320 319 321 324 326 327 328 329 330 333 337 340 342 342 342 342 341 340 341 342 343 344 345 346 346 347 350 351 350 352 354 351 345 340 339 340 341 340 338 335 331 328 326 322 319 315 308 296 284 280 278
255 256 257 260 263 267 272 278 284 285 284 284 283 284 286 287 290 294 296 300 303 306 308 310 311 314 317 320 322 322 322 322 321 320 318 319 322 324 325 327 328 329 331 335 338 341 343 343 343 342 341 340 341 342 343 344 345 347 347 348 350 351 351 353 355 354 351 346 341 340 340 341 340 338 334 329 326 323 320 317 313 308 298 285 278
257 259 262 265 268 271 275 281 285 285 284 283 283 283 285 287 290 293 296 299 302 305 307 308 310 314 317 320 320 321 320 320 319 319 319 320 321 323 325 327 329 331 333 336 339 342 344 344 344 343 341 340 340 341 342 344 345 346 347 349 351 351 352 353 354 356 356 352 346 341 340 340 339 338 336 330 324 321 321 319 316 311 307 299 287
262 265 268 270 271 273 276 280 283 284 284 284 284 285 287 288 291 293 295 298 301 304 305 306 309 313 316 318 319 319 318 318 319 319 319 319 320 322 325 328 330 332 334 337 340 343 345 345 345 342 340 339 339 340 342 343 345 345 347 349 351 352 354 354 354 356 357 355 350 344 341 339 338 338 340 336 329 326 324 322 319 314 311 307 300
266 269 272 273 274 275 277 280 283 284 285 286 287 288 289 290 292 293 295 298 300 302 304 305 308 312 315 317 318 317 317 318 319 318 318 318 319 322 325 329 331 333 335 338 341 344 345 345 344 342 340 338 338 338 339 341 343 344 346 349 350 353 355 355 355 356 357 357 355 348 342 339 338 338 341 339 335 332 329 325 320 316 312 308 304
267 270 272 274 275 276 278 281 282 284 285 286 287 288 289 290 292 293 295 296 298 300 302 304 307 311 314 315 316 315 316 318 318 318 317 317 318 321 325 329 332 334 336 338 341 343 345 345 344 341 339 337 336 336 336 338 341 343 346 349 350 353 356 356 355 356 357 358 358 354 347 340 336 336 337 335 331 329 328 327 323 318 312 308 303
264 267 269 271 273 275 277 279 281 282 283 283 284 286 287 289 290 291 292 294 295 297 300 302 305 309 312 314 315 315 316 317 317 316 316 315 316 320 324 329 333 335 336 337 340 343 344 345 343 341 339 337 336 335 335 337 339 342 345 348 350 353 354 355 356 357 357 358 359 359 354 346 341 340 337 333 330 327 325 324 322 319 314 310 305
261 264 266 268 271 274 276 279 280 281 281 282 284 286 288 289 290 289 289 290 293 295 297 300 304 308 311 313 314 315 316 316 315 315 315 314 315 319 323 329 333 335 336 337 339 341 343 344 344 342 339 336 335 335 335 335 336 339 343 346 349 351 352 354 356 357 357 358 359 1 359 356 353 349 344 338 333 329 325 323 320 318 315 311 307
261 263 266 269 272 276 278 281 282 283 285 287 288 289 290 290 292 292 290 289 291 292 294 298 303 308 311 313 314 314 315 314 314 313 312 313 315 318 323 328 332 334 336 336 337 339 342 344 344 343 339 337 336 335 334 334 334 338 341 344 347 349 350 353 355 356 357 358 359 0 1 1 358 354 350 345 340 335 331 329 326 322 317 314 309
264 267 270 273 277 280 282 285 287 289 290 291 291 291 291 292 294 295 291 287 286 288 292 298 304 308 311 313 313 313 313 312 311 311 311 312 315 318 322 326 330 333 334 335 335 338 341 344 344 343 340 337 336 334 334 335 336 338 339 341 343 346 348 351 353 355 356 358 359 360 1 1 360 357 354 348 343 340 339 338 335 330 326 323 316
268 271 275 278 281 284 288 291 293 292 292 293 294 294 294 293 292 291 287 283 282 286 292 299 304 307 310 312 313 312 311 310 309 309 310 312 314 317 320 324 328 331 333 333 334 336 340 343 344 342 340 338 336 335 335 337 338 338 338 339 341 343 346 349 351 353 355 357 358 359 360 0 0 0 359 354 348 344 344 344 341 336 334 334 328
271 275 278 281 284 289 293 295 295 294 293 294 295 297 296 291 286 285 283 281 282 287 294 299 303 307 310 312 312 311 309 308 308 308 310 312 314 316 318 322 325 328 331 331 331 334 338 341 342 342 340 338 336 337 337 337 337 337 337 338 339 341 344 346 348 351 354 356 357 359 359 359 360 1 1 360 355 350 347 347 345 339 336 339 338
275 278 280 284 287 291 293 293 294 295 294 292 292 293 293 289 287 287 283 281 283 289 295 300 303 307 310 311 311 310 309 308 308 308 310 313 315 316 317 320 323 327 329 330 330 333 337 340 341 341 340 338 337 337 336 335 334 335 337 338 339 339 341 344 346 349 352 355 356 358 359 359 359 0 1 1 0 357 352 349 347 343 339 342 344
277 280 283 286 288 290 290 291 292 294 293 290 288 286 286 288 290 288 284 283 287 292 296 300 303 307 309 311 312 311 310 309 308 309 311 313 315 316 317 319 322 326 328 328 329 333 337 340 340 340 339 338 336 334 332 332 333 335 337 338 339 339 341 343 345 347 350 353 355 357 358 358 358 359 0 1 2 1 358 353 351 349 346 345 347
280 282 284 287 289 290 290 290 291 292 291 287 282 281 285 291 292 289 286 287 290 292 295 298 302 306 310 312 313 312 311 310 310 310 312 313 315 315 316 318 322 325 326 327 328 332 336 339 339 339 338 336 333 331 331 332 334 335 337 338 339 341 342 343 344 345 348 351 353 356 357 357 358 358 359 0 1 2 1 358 355 354 353 351 350
281 284 286 289 290 290 290 290 290 291 288 281 276 279 287 291 291 289 288 288 289 290 293 297 302 306 310 313 313 313 312 311 311 312 313 314 315 314 315 317 321 324 325 326 328 332 336 337 337 336 335 332 331 331 333 334 335 336 337 338 340 342 343 343 344 345 346 349 351 354 355 357 357 358 358 358 360 2 4 1 357 357 359 359 356
Height
5847 5847 5847 5847 5847 5846 5846 5846 5846 5846 5846 5846 5845 5845 5844 5844 5844 5844 5844 5843 5843 5842 5841 5841 5841 5841 5841 5840 5839 5839 5838 5838 5837 5836 5836 5836 5835 5835 5834 5833 5832 5831 5830 5829 5828 5827 5826 5824 5823 5822 5820 5819 5817 5816 5815 5814 5812 5811 5810 5808 5807 5806 5805 5803 5802 5801 5800 5798 5797 5796 5795 5794 5793 5791 5790 5789 5788 5788 5786 5785 5784 5783 5782 5781 5780
5845 5846 5845 5845 5845 5845 5845 5845 5844 5844 5844 5844 5844 5843 5843 5843 5843 5843 5843 5842 5842 5841 5841 5840 5840 5840 5840 5839 5839 5838 5838 5837 5836 5835 5834 5834 5834 5833 5832 5831 5830 5829 5828 5827 5826 5825 5823 5822 5821 5819 5818 5816 5815 5814 5813 5811 5810 5809 5807 5806 5804 5803 5802 5801 5799 5798 5796 5795 5794 5793 5792 5791 5790 5789 5787 5786 5785 5784 5784 5783 5782 5781 5780 5778 5777
5844 5844 5844 5844 5844 5843 5843 5843 5843 5843 5842 5842 5842 5842 5841 5841 5841 5841 5841 5841 5841 5840 5839 5839 5839 5838 5838 5838 5838 5837 5837 5836 5835 5834 5833 5832 5832 5831 5830 5830 5829 5828 5827 5825 5824 5823 5821 5820 5818 5817 5815 5814 5813 5811 5810 5809 5808 5806 5805 5803 5802 5800 5799 5798 5796 5795 5793 5792 5791 5790 5789 5788 5787 5786 5784 5783 5782 5781 5781 5780 5779 5778 5777 5776 5775
5843 5843 5843 5842 5842 5841 5841 5841 5841 5840 5840 5840 5840 5840 5840 5839 5840 5840 5840 5840 5839 5839 5838 5838 5837 5837 5837 5837 5836 5836 5835 5834 5833 5832 5831 5831 5830 5830 5829 5828 5827 5826 5825 5823 5822 5820 5819 5817 5816 5814 5813 5812 5811 5809 5808 5806 5805 5804 5802 5801 5799 5797 5796 5794 5793 5792 5790 5789 5787 5786 5785 5784 5783 5782 5781 5780 5778 5777 5777 5776 5776 5775 5774 5773 5772
5842 5842 5842 5841 5840 5839 5839 5839 5840 5838 5837 5838 5838 5838 5838 5838 5838 5838 5838 5838 5837 5837 5836 5836 5836 5836 5835 5835 5834 5834 5833 5833 5832 5831 5830 5829 5829 5828 5828 5827 5825 5824 5822 5821 5819 5818 5816 5815 5814 5812 5811 5809 5808 5807 5805 5804 5802 5801 5799 5797 5796 5794 5792 5791 5789 5788 5787 5785 5784 5782 5781 5780 5779 5778 5777 5776 5775 5774 5773 5773 5772 5772 5771 5770 5769
5841 5841 5841 5840 5839 5838 5838 5839 5839 5838 5835 5836 5836 5835 5836 5836 5836 5836 5836 5836 5836 5835 5835 5834 5834 5834 5833 5833 5833 5832 5831 5831 5830 5829 5828 5827 5827 5826 5826 5825 5824 5822 5820 5818 5817 5816 5814 5813 5812 5810 5809 5807 5805 5804 5802 5801 5799 5797 5796 5794 5792 5791 5789 5787 5786 5784 5783 5781 5780 5779 5777 5775 5774 5774 5773 5772 5771 5770 5769 5769 5769 5768 5767 5767 5766
5839 5840 5839 5839 5838 5837 5837 5838 5838 5837 5834 5833 5833 5833 5834 5834 5834 5834 5834 5834 5834 5833 5833 5833 5833 5832 5832 5831 5831 5830 5830 5829 5828 5828 5827 5826 5824 5823 5823 5822 5821 5820 5819 5817 5815 5813 5812 5811 5809 5808 5806 5804 5803 5801 5799 5797 5796 5794 5792 5791 5789 5787 5786 5784 5782 5780 5779 5777 5776 5774 5772 5770 5769 5769 5768 5767 5766 5766 5765 5764 5764 5764 5764 5763 5762
5838 5837 5836 5837 5837 5836 5836 5836 5836 5836 5833 5831 5831 5831 5832 5832 5832 5833 5832 5832 5832 5831 5831 5831 5831 5830 5830 5830 5829 5829 5828 5828 5827 5826 5825 5824 5823 5822 5820 5819 5818 5817 5815 5815 5814 5812 5810 5809 5807 5806 5804 5802 5800 5798 5796 5794 5793 5791 5789 5787 5785 5783 5782 5780 5778 5776 5774 5773 5771 5770 5768 5766 5764 5764 5763 5762 5762 5761 5761 5760 5760 5760 5760 5759 5759
5836 5835 5834 5834 5834 5834 5834 5834 5835 5835 5832 5830 5829 5829 5830 5830 5830 5830 5830 5830 5830 5829 5829 5829 5829 5829 5829 5828 5828 5827 5827 5826 5825 5824 5823 5822 5821 5820 5819 5817 5816 5814 5813 5811 5811 5810 5809 5807 5806 5804 5801 5799 5797 5795 5793 5791 5789 5787 5785 5783 5781 5779 5777 5775 5774 5771 5770 5768 5766 5765 5763 5761 5759 5758 5758 5757 5756 5756 5756 5755 5755 5755 5755 5755 5755
5832 5832 5833 5833 5832 5832 5833 5833 5833 5832 5830 5828 5827 5828 5828 5828 5828 5828 5828 5828 5828 5828 5827 5827 5827 5827 5827 5826 5826 5826 5825 5824 5823 5823 5822 5820 5819 5818 5817 5815 5814 5812 5811 5809 5808 5807 5806 5805 5803 5801 5799 5797 5794 5792 5790 5788 5785 5783 5781 5779 5777 5775 5773 5770 5768 5766 5764 5763 5761 5760 5758 5756 5754 5753 5752 5751 5751 5751 5750 5750 5750 5750 5750 5751 5750
5830 5830 5832 5831 5830 5831 5831 5830 5829 5828 5827 5827 5826 5826 5827 5826 5826 5826 5826 5826 5826 5826 5826 5825 5825 5825 5825 5824 5824 5824 5824 5823 5822 5821 5820 5818 5817 5816 5815 5813 5811 5810 5808 5807 5806 5804 5803 5801 5800 5798 5796 5793 5791 5788 5786 5783 5781 5779 5776 5774 5772 5770 5767 5765 5763 5761 5759 5757 5756 5754 5753 5751 5750 5748 5747 5746 5746 5745 5745 5744 5744 5744 5744 5745 5746
5828 5828 5829 5829 5828 5829 5829 5828 5826 5825 5825 5826 5826 5825 5825 5824 5824 5824 5824 5825 5825 5824 5824 5824 5824 5823 5823 5823 5823 5823 5822 5821 5820 5819 5818 5816 5815 5814 5812 5811 5809 5808 5806 5805 5803 5802 5800 5798 5796 5794 5792 5790 5787 5785 5782 5779 5777 5775 5772 5769 5767 5765 5763 5760 5758 5756 5754 5752 5751 5749 5748 5747 5745 5744 5742 5741 5740 5740 5740 5739 5738 5738 5738 5739 5740
5826 5826 5826 5827 5827 5827 5827 5827 5826 5825 5824 5824 5824 5823 5823 5823 5823 5823 5823 5823 5823 5823 5822 5823 5822 5822 5822 5821 5821 5821 5821 5819 5818 5817 5816 5814 5813 5811 5810 5808 5807 5806 5804 5802 5801 5799 5797 5795 5793 5790 5788 5785 5783 5780 5778 5775 5772 5770 5767 5764 5762 5760 5758 5756 5754 5752 5750 5748 5746 5744 5743 5742 5740 5739 5737 5736 5735 5735 5734 5733 5733 5733 5733 5733 5734
5824 5824 5824 5825 5825 5825 5825 5825 5824 5824 5823 5822 5822 5822 5821 5821 5821 5821 5821 5821 5821 5821 5821 5821 5821 5821 5821 5820 5820 5819 5819 5817 5816 5815 5814 5812 5810 5809 5807 5806 5804 5803 5801 5800 5798 5796 5794 5791 5789 5786 5783 5780 5778 5775 5773 5770 5767 5764 5762 5759 5757 5755 5753 5751 5749 5747 5745 5743 5741 5739 5737 5736 5735 5734 5732 5731 5730 5730 5729 5728 5727 5727 5727 5728 5729
5823 5822 5822 5822 5822 5822 5822 5822 5822 5822 5821 5821 5820 5820 5819 5819 5819 5819 5819 5819 5819 5820 5820 5820 5820 5819 5819 5818 5818 5818 5818 5816 5813 5812 5811 5810 5808 5806 5805 5803 5802 5800 5798 5797 5795 5792 5790 5787 5784 5781 5779 5776 5773 5771 5768 5765 5762 5760 5757 5755 5752 5750 5748 5746 5744 5742 5740 5738 5736 5734 5732 5731 5729 5728 5727 5725 5725 5724 5724 5722 5722 5722 5722 5722 5723
5820 5820 5820 5820 5819 5819 5819 5820 5820 5820 5819 5819 5818 5818 5818 5818 5817 5817 5818 5818 5818 5819 5818 5818 5818 5817 5816 5816 5815 5815 5816 5815 5812 5810 5808 5807 5806 5804 5802 5800 5798 5797 5795 5792 5790 5788 5785 5782 5780 5777 5775 5772 5769 5766 5764 5761 5758 5756 5753 5750 5748 5745 5743 5740 5738 5736 5734 5732 5730 5728 5726 5725 5724 5722 5721 5720 5719 5719 5718 5717 5716 5716 5716 5716 5717
5818 5818 5818 5818 5817 5817 5817 5818 5818 5818 5817 5817 5816 5816 5816 5816 5815 5815 5816 5816 5817 5817 5817 5817 5816 5815 5814 5813 5812 5812 5812 5811 5810 5808 5806 5805 5803 5801 5799 5797 5795 5793 5791 5789 5786 5784 5781 5778 5776 5773 5771 5768 5765 5763 5760 5757 5754 5751 5748 5746 5743 5740 5738 5735 5733 5731 5728 5726 5724 5722 5720 5719 5717 5716 5715 5714 5713 5712 5712 5711 5710 5710 5710 5711 5711
5816 5816 5815 5815 5815 5815 5815 5816 5816 5816 5815 5814 5814 5814 5814 5814 5814 5814 5814 5815 5815 5815 5815 5815 5814 5813 5812 5811 5810 5809 5808 5807 5807 5806 5804 5802 5800 5799 5797 5794 5792 5790 5788 5785 5782 5780 5777 5775 5772 5770 5767 5765 5762 5759 5756 5753 5750 5747 5744 5741 5739 5736 5733 5730 5727 5725 5722 5720 5718 5716 5714 5712 5711 5709 5708 5707 5706 5706 5705 5704 5704 5704 5704 5704 5705
5814 5814 5813 5813 5813 5813 5813 5813 5814 5813 5812 5812 5812 5812 5812 5812 5812 5813 5813 5814 5814 5814 5813 5813 5812 5812 5811 5810 5808 5807 5805 5803 5802 5802 5801 5799 5797 5795 5793 5791 5789 5786 5784 5781 5778 5775 5772 5770 5768 5765 5763 5760 5757 5754 5751 5748 5745 5743 5740 5737 5734 5731 5728 5725 5722 5718 5715 5713 5710 5708 5706 5704 5703 5702 5700 5699 5699 5698 5698 5697 5697 5697 5697 5698 5699
5811 5811 5811 5811 5811 5811 5811 5811 5811 5810 5810 5810 5810 5810 5810 5810 5811 5811 5812 5812 5812 5812 5812 5812 5811 5810 5809 5808 5806 5804 5803 5801 5800 5798 5797 5795 5793 5791 5789 5786 5784 5781 5779 5776 5773 5771 5768 5766 5764 5761 5759 5756 5753 5750 5747 5744 5741 5738 5735 5731 5728 5725 5722 5718 5715 5711 5708 5705 5702 5699 5697 5695 5694 5693 5692 5691 5690 5690 5690 5690 5690 5690 5690 5691 5693
5808 5808 5809 5809 5809 5809 5809 5809 5809 5808 5808 5808 5807 5808 5808 5809 5810 5810 5811 5811 5811 5811 5810 5810 5809 5808 5807 5806 5804 5803 5801 5799 5797 5795 5793 5791 5790 5788 5786 5784 5781 5778 5775 5773 5770 5768 5766 5763 5761 5759 5756 5753 5750 5746 5743 5740 5736 5733 5729 5725 5721 5717 5714 5710 5706 5703 5699 5696 5693 5690 5687 5685 5684 5683 5682 5682 5681 5681 5681 5682 5682 5682 5683 5684 5685
5805 5806 5806 5806 5806 5807 5807 5807 5807 5807 5806 5806 5806 5807 5807 5808 5809 5809 5809 5809 5809 5809 5809 5808 5807 5806 5805 5803 5802 5801 5799 5797 5795 5793 5791 5789 5787 5784 5783 5780 5778 5775 5772 5769 5767 5764 5761 5759 5757 5754 5751 5748 5745 5742 5738 5735 5731 5727 5723 5718 5713 5709 5705 5701 5696 5692 5689 5686 5683 5680 5677 5675 5673 5672 5671 5671 5671 5671 5671 5672 5673 5674 5675 5676 5677
5803 5803 5804 5804 5804 5804 5805 5805 5805 5805 5805 5805 5805 5806 5806 5807 5807 5808 5808 5808 5808 5807 5807 5806 5805 5804 5803 5802 5800 5799 5797 5795 5793 5791 5789 5786 5784 5781 5779 5776 5774 5772 5768 5765 5763 5760 5757 5755 5752 5750 5747 5743 5740 5736 5733 5729 5725 5721 5716 5711 5705 5701 5696 5692 5688 5683 5679 5676 5673 5670 5668 5665 5663 5662 5661 5660 5660 5660 5660 5662 5664 5665 5666 5667 5669
5800 5800 5801 5801 5802 5802 5803 5803 5803 5803 5803 5803 5804 5804 5805 5806 5806 5806 5806 5806 5806 5805 5805 5804 5803 5802 5801 5800 5798 5797 5795 5793 5791 5789 5786 5784 5781 5778 5775 5772 5770 5768 5765 5762 5760 5758 5755 5751 5748 5746 5742 5739 5735 5731 5727 5723 5718 5714 5709 5703 5698 5693 5689 5685 5681 5676 5672 5668 5665 5662 5659 5656 5654 5652 5651 5650 5650 5650 5650 5651 5653 5655 5657 5658 5660
5797 5798 5799 5799 5800 5800 5801 5801 5801 5801 5801 5802 5803 5803 5804 5804 5805 5805 5805 5804 5804 5804 5803 5802 5802 5801 5799 5798 5797 5795 5793 5791 5788 5786 5783 5780 5777 5774 5771 5768 5766 5764 5762 5759 5756 5754 5752 5748 5744 5741 5738 5734 5730 5726 5721 5716 5711 5707 5702 5697 5691 5687 5683 5679 5674 5670 5666 5661 5657 5654 5650 5647 5645 5643 5641 5641 5641 5641 5641 5641 5643 5645 5647 5649 5651
5796 5796 5797 5798 5798 5798 5798 5798 5799 5799 5800 5801 5801 5802 5803 5803 5803 5803 5803 5803 5803 5802 5802 5801 5800 5799 5798 5796 5794 5792 5790 5788 5785 5782 5779 5776 5774 5771 5768 5766 5763 5760 5758 5756 5753 5750 5747 5744 5740 5736 5733 5729 5724 5719 5715 5710 5705 5700 5695 5690 5686 5681 5677 5673 5669 5664 5660 5655 5650 5646 5642 5639 5636 5634 5633 5632 5632 5632 5632 5632 5633 5635 5637 5639 5642
5794 5795 5795 5795 5796 5796 5796 5797 5798 5798 5799 5800 5800 5801 5801 5802 5802 5802 5802 5801 5801 5801 5800 5799 5798 5797 5795 5793 5791 5789 5786 5784 5781 5778 5776 5773 5771 5768 5766 5763 5760 5758 5755 5752 5750 5747 5743 5740 5736 5732 5728 5724 5719 5714 5709 5704 5699 5694 5690 5685 5680 5676 5671 5667 5663 5658 5653 5648 5643 5640 5636 5633 5629 5626 5624 5623 5623 5624 5624 5624 5625 5626 5628 5630 5633
5792 5793 5793 5793 5793 5794 5795 5796 5797 5798 5798 5799 5799 5800 5800 5800 5800 5800 5800 5800 5799 5799 5798 5797 5796 5794 5792 5790 5788 5785 5783 5780 5778 5775 5773 5771 5768 5765 5763 5760 5757 5754 5752 5749 5746 5744 5740 5736 5732 5728 5723 5719 5714 5709 5703 5699 5694 5690 5685 5680 5675 5671 5666 5661 5657 5651 5646 5642 5638 5635 5632 5629 5625 5621 5618 5616 5615 5616 5616 5617 5617 5618 5619 5621 5624
5790 5791 5791 5791 5792 5793 5794 5795 5796 5797 5797 5798 5798 5798 5799 5799 5799 5798 5798 5798 5797 5797 5796 5795 5793 5791 5789 5787 5784 5782 5780 5777 5775 5773 5771 5768 5765 5762 5759 5757 5754 5751 5748 5746 5743 5740 5736 5732 5728 5724 5719 5714 5709 5704 5699 5695 5690 5686 5681 5676 5671 5667 5662 5657 5652 5646 5641 5638 5635 5632 5629 5625 5622 5618 5615 5611 5609 5609 5609 5609 5610 5611 5612 5613 5615
5789 5790 5790 5791 5792 5792 5793 5794 5795 5795 5796 5796 5797 5797 5797 5797 5797 5797 5796 5796 5795 5795 5794 5792 5790 5788 5786 5784 5781 5779 5777 5775 5773 5770 5767 5764 5761 5759 5756 5754 5752 5749 5746 5743 5739 5736 5732 5728 5724 5720 5715 5710 5705 5700 5696 5691 5687 5682 5677 5672 5667 5663 5658 5652 5647 5642 5637 5634 5631 5628 5625 5621 5618 5615 5612 5609 5606 5603 5603 5603 5604 5604 5605 5606 5607
5789 5789 5790 5790 5790 5791 5792 5793 5793 5794 5795 5795 5795 5795 5795 5795 5795 5795 5794 5794 5793 5792 5791 5790 5788 5786 5783 5781 5779 5777 5775 5772 5770 5767 5764 5761 5759 5756 5754 5751 5749 5746 5744 5740 5736 5733 5729 5725 5720 5716 5712 5707 5702 5697 5692 5688 5683 5679 5674 5669 5664 5659 5654 5649 5643 5638 5634 5630 5627 5624 5620 5617 5613 5611 5608 5606 5603 5600 5598 5597 5598 5598 5599 5599 5600
5788 5788 5788 5788 5789 5790 5791 5791 5792 5793 5793 5793 5793 5793 5793 5793 5793 5793 5792 5792 5791 5790 5789 5787 5785 5783 5781 5779 5777 5774 5772 5769 5766 5763 5761 5758 5756 5754 5751 5749 5746 5743 5740 5737 5733 5730 5726 5722 5718 5713 5709 5705 5700 5695 5690 5686 5681 5677 5672 5667 5662 5657 5651 5645 5640 5635 5631 5628 5624 5620 5616 5612 5609 5606 5604 5602 5600 5597 5595 5593 5592 5593 5593 5593 5594
5786 5787 5787 5787 5788 5789 5789 5790 5791 5791 5791 5792 5792 5792 5792 5791 5791 5791 5790 5790 5789 5788 5786 5784 5782 5780 5778 5776 5774 5772 5769 5766 5763 5760 5758 5756 5754 5752 5749 5746 5743 5740 5737 5734 5730 5726 5722 5718 5714 5710 5706 5702 5698 5693 5689 5685 5680 5676 5671 5666 5661 5655 5649 5643 5638 5633 5629 5625 5621 5617 5613 5609 5605 5602 5599 5597 5595 5594 5592 5590 5588 5588 5588 5588 5588
5785 5785 5786 5786 5787 5788 5788 5789 5789 5790 5790 5790 5790 5790 5790 5789 5789 5789 5788 5787 5786 5785 5783 5781 5780 5778 5776 5774 5771 5769 5765 5763 5760 5758 5756 5754 5752 5749 5747 5744 5741 5738 5734 5730 5727 5723 5719 5715 5711 5707 5703 5699 5696 5692 5688 5684 5679 5675 5670 5665 5660 5654 5648 5642 5636 5631 5626 5622 5618 5614 5610 5606 5602 5599 5596 5593 5591 5590 5588 5587 5586 5584 5583 5584 5584
5784 5784 5785 5786 5786 5787 5787 5788 5788 5788 5788 5788 5788 5788 5788 5787 5787 5786 5786 5785 5784 5782 5780 5779 5777 5775 5773 5771 5768 5765 5762 5760 5757 5755 5753 5751 5749 5747 5744 5742 5739 5735 5732 5728 5724 5720 5716 5712 5708 5704 5701 5697 5693 5690 5686 5682 5678 5674 5670 5665 5660 5654 5648 5642 5636 5630 5624 5619 5615 5612 5608 5604 5600 5597 5594 5591 5589 5586 5585 5584 5583 5581 5580 5579 5579
5783 5783 5784 5785 5785 5786 5786 5786 5786 5786 5787 5786 5786 5786 5786 5785 5785 5784 5783 5782 5781 5779 5778 5776 5774 5772 5770 5767 5765 5762 5760 5757 5755 5753 5751 5749 5747 5744 5742 5739 5736 5733 5729 5725 5721 5717 5714 5710 5706 5702 5699 5695 5692 5688 5685 5681 5677 5673 5668 5664 5659 5654 5648 5642 5636 5630 5623 5617 5612 5608 5605 5602 5598 5595 5592 5589 5587 5584 5582 5580 5579 5578 5577 5576 5575
5782 5783 5783 5783 5784 5784 5784 5785 5785 5785 5785 5784 5784 5784 5783 5783 5782 5781 5780 5779 5778 5776 5775 5773 5771 5769 5767 5764 5762 5759 5757 5754 5752 5750 5748 5746 5744 5742 5739 5737 5734 5730 5726 5723 5719 5715 5712 5708 5704 5700 5697 5693 5690 5687 5683 5680 5676 5672 5668 5663 5658 5654 5648 5641 5635 5629 5623 5616 5610 5605 5602 5599 5596 5593 5590 5587 5584 5582 5579 5577 5575 5574 5573 5573 5572
5781 5781 5782 5782 5782 5783 5783 5783 5783 5783 5783 5782 5782 5781 5781 5780 5779 5778 5777 5776 5775 5773 5772 5770 5768 5766 5763 5761 5759 5757 5754 5752 5750 5748 5746 5744 5742 5739 5737 5734 5731 5727 5724 5720 5716 5713 5709 5706 5702 5698 5695 5692 5689 5685 5682 5678 5675 5671 5667 5662 5657 5652 5647 5641 5635 5629 5622 5615 5609 5604 5599 5596 5593 5590 5587 5584 5582 5579 5577 5574 5572 5571 5569 5568 5568
5779 5780 5780 5781 5781 5781 5781 5781 5781 5781 5780 5780 5779 5779 5778 5777 5776 5775 5774 5773 5772 5770 5769 5767 5765 5763 5760 5758 5756 5754 5752 5749 5747 5745 5743 5741 5739 5737 5734 5732 5728 5725 5721 5717 5714 5710 5707 5703 5700 5697 5694 5690 5687 5684 5681 5677 5673 5669 5666 5661 5657 5651 5645 5640 5634 5628 5622 5615 5609 5603 5598 5593 5590 5588 5585 5582 5579 5577 5574 5572 5570 5567 5566 5564 5563
5778 5778 5779 5779 5779 5779 5779 5779 5779 5779 5778 5777 5777 5776 5775 5774 5773 5772 5771 5770 5769 5768 5766 5764 5762 5760 5758 5755 5753 5751 5749 5747 5744 5742 5740 5738 5736 5734 5732 5729 5726 5722 5719 5715 5712 5708 5705 5701 5698 5695 5692 5689 5686 5683 5679 5676 5672 5668 5663 5659 5655 5650 5644 5638 5633 5627 5622 5616 5609 5603 5597 5592 5588 5586 5583 5580 5578 5575 5573 5570 5567 5564 5562 5560 5559
5776 5776 5777 5777 5777 5777 5777 5777 5776 5776 5775 5775 5773 5772 5771 5771 5770 5769 5768 5767 5766 5764 5763 5761 5759 5757 5755 5752 5750 5748 5746 5744 5742 5740 5738 5736 5734 5732 5729 5726 5723 5719 5716 5713 5710 5706 5703 5699 5696 5693 5690 5687 5684 5681 5678 5674 5670 5666 5662 5657 5653 5648 5643 5638 5632 5627 5621 5615 5609 5602 5596 5591 5587 5584 5581 5579 5576 5573 5570 5567 5564 5561 5559 5557 5555
5774 5774 5774 5774 5774 5774 5774 5774 5773 5773 5772 5771 5770 5769 5768 5767 5766 5765 5764 5763 5763 5761 5760 5758 5756 5754 5752 5750 5748 5745 5743 5741 5739 5737 5735 5733 5731 5729 5726 5723 5720 5717 5714 5711 5707 5704 5701 5698 5695 5692 5688 5685 5682 5679 5675 5672 5668 5664 5660 5656 5651 5646 5642 5638 5632 5626 5621 5615 5609 5603 5597 5591 5586 5582 5579 5576 5573 5570 5567 5564 5560 5558 5555 5552 5550
5771 5771 5771 5771 5771 5771 5771 5770 5770 5769 5768 5767 5766 5765 5764 5763 5762 5761 5761 5760 5759 5758 5757 5755 5753 5751 5749 5747 5745 5742 5740 5738 5736 5734 5732 5731 5729 5726 5723 5720 5717 5714 5711 5708 5705 5702 5699 5696 5693 5689 5686 5683 5680 5676 5673 5670 5666 5663 5658 5654 5650 5645 5640 5636 5631 5626 5621 5615 5609 5603 5597 5591 5585 5581 5577 5574 5571 5567 5564 5560 5557 5553 5550 5547 5545
5769 5769 5768 5768 5768 5768 5768 5767 5766 5765 5765 5764 5762 5761 5760 5759 5758 5757 5757 5756 5756 5755 5754 5752 5750 5748 5746 5744 5742 5740 5738 5735 5733 5731 5730 5728 5726 5723 5720 5717 5714 5711 5709 5706 5703 5700 5696 5693 5690 5687 5684 5681 5678 5674 5671 5668 5664 5660 5656 5652 5648 5643 5639 5634 5629 5624 5619 5614 5608 5602 5596 5590 5584 5580 5575 5571 5568 5564 5560 5556 5552 5548 5545 5541 5537
5766 5766 5766 5765 5765 5765 5764 5764 5763 5762 5761 5760 5758 5757 5756 5755 5754 5753 5753 5753 5752 5752 5750 5749 5747 5745 5743 5741 5739 5737 5735 5733 5731 5729 5727 5725 5723 5720 5717 5714 5712 5709 5706 5703 5700 5697 5694 5691 5688 5685 5682 5679 5676 5672 5669 5665 5662 5658 5654 5650 5646 5642 5637 5632 5627 5623 5618 5612 5607 5601 5595 5590 5584 5579 5574 5569 5565 5561 5557 5552 5548 5543 5539 5534 5529
5763 5763 5763 5762 5762 5762 5761 5760 5759 5758 5757 5756 5754 5753 5752 5751 5751 5750 5749 5749 5749 5748 5747 5746 5744 5742 5740 5738 5736 5734 5732 5730 5729 5727 5725 5723 5720 5718 5715 5712 5709 5706 5703 5700 5698 5695 5692 5689 5686 5683 5680 5677 5673 5670 5666 5662 5659 5655 5652 5648 5645 5641 5636 5631 5626 5621 5616 5611 5606 5600 5595 5589 5583 5577 5572 5567 5562 5557 5553 5548 5543 5539 5534 5527 5520
5760 5760 5759 5759 5759 5758 5758 5757 5756 5754 5753 5753 5751 5750 5749 5749 5748 5747 5747 5746 5746 5745 5744 5742 5740 5739 5737 5735 5733 5731 5729 5728 5726 5724 5722 5720 5718 5716 5713 5710 5707 5704 5701 5699 5696 5693 5690 5687 5683 5680 5677 5674 5671 5667 5664 5660 5657 5653 5650 5646 5642 5638 5634 5630 5625 5620 5615 5610 5605 5599 5594 5588 5583 5577 5571 5566 5560 5555 5549 5545 5540 5534 5528 5521 5513
5757 5757 5756 5756 5756 5755 5754 5753 5752 5751 5750 5749 5748 5747 5746 5746 5745 5744 5744 5743 5743 5742 5740 5739 5737 5736 5734 5732 5730 5729 5727 5725 5723 5721 5719 5717 5715 5713 5710 5708 5705 5702 5699 5696 5693 5690 5687 5684 5681 5678 5675 5672 5668 5665 5662 5659 5656 5652 5649 5645 5641 5637 5633 5629 5624 5619 5614 5609 5604 5598 5593 5587 5582 5576 5570 5564 5559 5553 5547 5542 5537 5530 5523 5516 5508
5754 5753 5753 5753 5752 5752 5751 5750 5749 5748 5747 5746 5745 5744 5744 5743 5742 5741 5741 5740 5739 5738 5737 5735 5734 5733 5731 5729 5727 5726 5724 5722 5720 5719 5717 5714 5712 5710 5707 5705 5702 5699 5696 5693 5691 5688 5685 5682 5678 5675 5673 5670 5667 5664 5661 5658 5654 5650 5647 5643 5639 5635 5631 5627 5623 5618 5613 5608 5603 5598 5592 5586 5581 5575 5570 5564 5558 5552 5546 5540 5534 5526 5518 5511 5504
5750 5750 5750 5749 5749 5748 5747 5746 5746 5745 5744 5743 5742 5741 5741 5740 5739 5738 5737 5737 5736 5735 5733 5732 5731 5730 5728 5726 5725 5723 5721 5719 5718 5716 5714 5711 5709 5707 5704 5702 5699 5697 5694 5691 5688 5686 5683 5679 5676 5673 5671 5668 5665 5663 5659 5656 5652 5648 5644 5641 5637 5633 5629 5625 5621 5616 5612 5607 5602 5597 5592 5586 5580 5575 5569 5564 5558 5552 5544 5537 5531 5524 5516 5508 5500
5747 5747 5746 5746 5745 5744 5744 5743 5742 5741 5740 5739 5739 5738 5738 5737 5736 5735 5734 5733 5732 5731 5730 5729 5728 5726 5725 5723 5722 5720 5718 5717 5715 5713 5710 5708 5706 5704 5701 5699 5697 5694 5691 5688 5686 5683 5680 5677 5674 5672 5669 5667 5664 5660 5657 5653 5649 5645 5642 5638 5635 5631 5627 5623 5619 5615 5610 5605 5601 5596 5591 5586 5580 5574 5568 5563 5558 5552 5544 5536 5530 5523 5514 5506 5499